Wetterdaten: aktuell Sonntag, 24.09.2017 23:55
Datum Zeit Temp. A. Feuchte A. Luftdruck Regen Wind Richtung Richtung Windben
24.09.2017 23:55 11,7 C 94 % 1022,0 hPa 0,0 l/m 0,0 km/h N-NW 343 0,0 km/h
24.09.2017 23:50 11,7 C 93 % 1022,0 hPa 0,0 l/m 0,0 km/h N-NW 343 0,0 km/h
24.09.2017 23:45 11,7 C 93 % 1022,0 hPa 0,0 l/m 0,0 km/h N-NW 343 0,0 km/h
24.09.2017 23:40 11,8 C 93 % 1022,1 hPa 0,0 l/m 0,0 km/h N-NW 343 0,0 km/h
24.09.2017 23:35 11,8 C 93 % 1022,1 hPa 0,0 l/m 0,0 km/h N-NW 343 0,0 km/h
24.09.2017 23:30 11,8 C 93 % 1022,2 hPa 0,0 l/m 0,0 km/h N-NW 343 0,0 km/h
24.09.2017 23:25 11,9 C 93 % 1022,1 hPa 0,0 l/m 0,0 km/h N-NW 343 0,0 km/h
24.09.2017 23:20 11,9 C 93 % 1022,1 hPa 0,0 l/m 0,0 km/h N-NW 343 0,0 km/h
24.09.2017 23:15 12,0 C 93 % 1022,1 hPa 0,0 l/m 0,0 km/h N-NW 343 0,0 km/h
24.09.2017 23:10 12,0 C 93 % 1022,2 hPa 0,0 l/m 0,0 km/h N-NW 343 0,0 km/h
24.09.2017 23:05 12,1 C 93 % 1022,2 hPa 0,0 l/m 0,0 km/h N-NW 343 0,0 km/h
24.09.2017 23:00 12,1 C 93 % 1022,2 hPa 0,0 l/m 0,0 km/h N-NW 343 0,0 km/h
24.09.2017 22:55 12,1 C 93 % 1022,2 hPa 0,0 l/m 0,0 km/h N-NW 343 0,0 km/h
24.09.2017 22:50 12,1 C 93 % 1022,2 hPa 0,0 l/m 0,0 km/h N-NW 343 0,0 km/h
24.09.2017 22:45 12,1 C 93 % 1022,2 hPa 0,0 l/m 0,0 km/h N-NW 343 0,0 km/h
24.09.2017 22:40 12,2 C 93 % 1022,2 hPa 0,0 l/m 0,0 km/h N-NW 343 0,0 km/h
24.09.2017 22:35 12,2 C 93 % 1022,2 hPa 0,0 l/m 0,0 km/h N-NW 343 0,0 km/h
24.09.2017 22:30 12,2 C 93 % 1022,2 hPa 0,0 l/m 0,0 km/h N-NW 343 0,0 km/h
24.09.2017 22:25 12,1 C 93 % 1022,2 hPa 0,0 l/m 0,0 km/h N-NW 343 0,0 km/h
24.09.2017 22:20 12,2 C 92 % 1022,2 hPa 0,0 l/m 0,0 km/h N-NW 343 0,0 km/h
24.09.2017 22:15 12,2 C 92 % 1022,2 hPa 0,0 l/m 0,0 km/h N-NW 343 0,0 km/h
24.09.2017 22:10 12,2 C 92 % 1022,3 hPa 0,0 l/m 0,0 km/h N-NW 343 0,0 km/h
24.09.2017 22:05 12,2 C 92 % 1022,3 hPa 0,0 l/m 0,0 km/h N-NW 343 0,0 km/h
24.09.2017 22:00 12,2 C 92 % 1022,2 hPa 0,0 l/m 0,0 km/h N-NW 343 0,0 km/h
24.09.2017 21:55 12,2 C 92 % 1022,2 hPa 0,0 l/m 0,0 km/h N-NW 343 0,0 km/h
24.09.2017 21:50 12,2 C 92 % 1022,2 hPa 0,0 l/m 0,0 km/h N-NW 343 0,0 km/h
24.09.2017 21:45 12,2 C 92 % 1022,2 hPa 0,0 l/m 0,0 km/h N-NW 343 0,0 km/h
24.09.2017 21:40 12,1 C 92 % 1022,2 hPa 0,0 l/m 0,0 km/h N-NW 343 0,0 km/h
24.09.2017 21:35 12,1 C 92 % 1022,2 hPa 0,0 l/m 0,0 km/h N-NW 343 0,0 km/h
24.09.2017 21:30 12,1 C 92 % 1022,1 hPa 0,0 l/m 0,0 km/h N-NW 343 0,0 km/h
24.09.2017 21:25 12,2 C 92 % 1022,0 hPa 0,0 l/m 0,0 km/h N-NW 343 0,0 km/h
24.09.2017 21:20 12,1 C 92 % 1022,0 hPa 0,0 l/m 0,0 km/h N-NW 343 0,0 km/h
24.09.2017 21:15 12,1 C 92 % 1021,9 hPa 0,0 l/m 0,0 km/h N-NW 343 0,0 km/h
24.09.2017 21:10 12,1 C 92 % 1021,9 hPa 0,0 l/m 0,0 km/h N-NW 343 0,0 km/h
24.09.2017 21:05 12,1 C 92 % 1021,9 hPa 0,0 l/m 0,0 km/h N-NW 343 0,0 km/h
24.09.2017 21:00 12,1 C 92 % 1021,9 hPa 0,0 l/m 0,0 km/h N-NW 343 0,0 km/h
24.09.2017 20:55 12,1 C 92 % 1021,9 hPa 0,0 l/m 0,0 km/h N-NW 343 0,0 km/h
24.09.2017 20:50 12,1 C 92 % 1021,9 hPa 0,0 l/m 0,0 km/h N-NW 343 0,0 km/h
24.09.2017 20:45 12,1 C 92 % 1021,8 hPa 0,0 l/m 0,0 km/h N-NW 343 0,0 km/h
24.09.2017 20:40 12,1 C 92 % 1021,7 hPa 0,0 l/m 0,0 km/h N-NW 343 0,0 km/h
24.09.2017 20:35 12,1 C 92 % 1021,8 hPa 0,0 l/m 0,0 km/h N-NW 343 0,0 km/h
24.09.2017 20:30 12,1 C 92 % 1021,8 hPa 0,0 l/m 0,0 km/h N-NW 341 0,0 km/h
24.09.2017 20:25 12,1 C 92 % 1021,8 hPa 0,0 l/m 0,0 km/h N-NW 337 0,0 km/h
24.09.2017 20:20 12,1 C 92 % 1021,7 hPa 0,0 l/m 0,0 km/h N-NW 330 0,0 km/h
24.09.2017 20:15 12,1 C 92 % 1021,7 hPa 0,0 l/m 0,0 km/h N 353 0,0 km/h
24.09.2017 20:11 12,1 C 92 % 1021,7 hPa 0,0 l/m 0,0 km/h N-NW 348 0,0 km/h
24.09.2017 20:05 12,1 C 92 % 1021,8 hPa 0,0 l/m 0,0 km/h N-NW 348 0,0 km/h
24.09.2017 20:00 12,1 C 91 % 1021,7 hPa 0,0 l/m 0,0 km/h N-NW 348 0,0 km/h
24.09.2017 19:55 12,2 C 91 % 1021,7 hPa 0,0 l/m 0,0 km/h N-NW 348 0,0 km/h
24.09.2017 19:50 12,2 C 91 % 1021,7 hPa 0,0 l/m 0,0 km/h N-NW 348 0,0 km/h
24.09.2017 19:45 12,2 C 91 % 1021,6 hPa 0,0 l/m 0,0 km/h N-NW 348 0,0 km/h
24.09.2017 19:40 12,1 C 91 % 1021,7 hPa 0,0 l/m 0,0 km/h N-NW 348 0,0 km/h
24.09.2017 19:35 12,1 C 91 % 1021,6 hPa 0,0 l/m 0,0 km/h N-NW 348 0,0 km/h
24.09.2017 19:30 12,1 C 91 % 1021,5 hPa 0,0 l/m 0,0 km/h N 358 0,0 km/h
24.09.2017 19:25 12,1 C 91 % 1021,5 hPa 0,0 l/m 0,0 km/h N 354 0,0 km/h
24.09.2017 19:20 12,1 C 91 % 1021,4 hPa 0,0 l/m 0,0 km/h N 354 0,0 km/h
24.09.2017 19:15 12,1 C 91 % 1021,4 hPa 0,0 l/m 0,0 km/h N 354 0,0 km/h
24.09.2017 19:10 12,1 C 91 % 1021,3 hPa 0,0 l/m 0,0 km/h N 3 0,0 km/h
24.09.2017 19:05 12,1 C 91 % 1021,3 hPa 0,0 l/m 0,0 km/h N 358 0,0 km/h
24.09.2017 19:00 12,2 C 91 % 1021,2 hPa 0,0 l/m 0,0 km/h N 354 0,0 km/h
24.09.2017 18:55 12,3 C 90 % 1021,2 hPa 0,0 l/m 0,0 km/h N 1 0,0 km/h
24.09.2017 18:50 12,4 C 89 % 1021,2 hPa 0,0 l/m 0,0 km/h N 1 0,0 km/h
24.09.2017 18:45 12,7 C 88 % 1021,3 hPa 0,0 l/m 0,0 km/h N 354 0,0 km/h
24.09.2017 18:40 13,1 C 87 % 1021,2 hPa 0,0 l/m 0,0 km/h N-NW 337 0,0 km/h
24.09.2017 18:35 13,3 C 87 % 1021,2 hPa 0,0 l/m 0,0 km/h W-NW 300 0,0 km/h
24.09.2017 18:30 13,5 C 87 % 1021,2 hPa 0,0 l/m 0,0 km/h W-NW 300 0,0 km/h
24.09.2017 18:25 13,7 C 87 % 1021,1 hPa 0,0 l/m 0,0 km/h W-NW 300 0,0 km/h
24.09.2017 18:20 13,8 C 87 % 1021,1 hPa 0,0 l/m 0,0 km/h W-NW 282 0,0 km/h
24.09.2017 18:15 13,9 C 86 % 1021,1 hPa 0,0 l/m 0,0 km/h W-NW 282 0,0 km/h
24.09.2017 18:10 13,9 C 86 % 1021,0 hPa 0,0 l/m 0,0 km/h W-NW 282 0,0 km/h
24.09.2017 18:05 14,1 C 87 % 1021,1 hPa 0,0 l/m 0,0 km/h W-NW 282 0,0 km/h
24.09.2017 18:00 14,1 C 86 % 1021,1 hPa 0,0 l/m 0,0 km/h W-NW 282 0,0 km/h
24.09.2017 17:55 14,2 C 86 % 1021,1 hPa 0,0 l/m 0,0 km/h W-NW 282 0,0 km/h
24.09.2017 17:50 14,2 C 86 % 1021,2 hPa 0,0 l/m 0,0 km/h W-NW 282 0,0 km/h
24.09.2017 17:45 14,2 C 85 % 1021,1 hPa 0,0 l/m 0,0 km/h W-NW 282 0,0 km/h
24.09.2017 17:40 14,2 C 86 % 1021,1 hPa 0,0 l/m 0,0 km/h W-NW 282 0,0 km/h
24.09.2017 17:35 14,3 C 85 % 1021,1 hPa 0,0 l/m 0,0 km/h W-NW 282 0,0 km/h
24.09.2017 17:30 14,3 C 84 % 1021,0 hPa 0,0 l/m 0,0 km/h W-NW 282 1,6 km/h
24.09.2017 17:25 14,5 C 85 % 1021,0 hPa 0,0 l/m 0,0 km/h W-SW 248 0,0 km/h
24.09.2017 17:20 14,7 C 84 % 1021,0 hPa 0,0 l/m 0,0 km/h W-SW 248 1,6 km/h
24.09.2017 17:15 14,7 C 82 % 1021,1 hPa 0,0 l/m 0,0 km/h W-SW 248 1,6 km/h
24.09.2017 17:10 14,8 C 81 % 1021,0 hPa 0,0 l/m 0,0 km/h S 188 0,0 km/h
24.09.2017 17:05 14,8 C 81 % 1021,0 hPa 0,0 l/m 0,0 km/h S 188 1,6 km/h
24.09.2017 17:00 14,8 C 80 % 1021,0 hPa 0,0 l/m 0,0 km/h SO 130 0,0 km/h
24.09.2017 16:55 14,9 C 80 % 1021,1 hPa 0,0 l/m 0,0 km/h SO 130 0,0 km/h
24.09.2017 16:50 14,9 C 80 % 1021,0 hPa 0,0 l/m 0,0 km/h SO 130 0,0 km/h
24.09.2017 16:45 15,1 C 80 % 1021,0 hPa 0,0 l/m 0,0 km/h SO 130 0,0 km/h
24.09.2017 16:40 15,1 C 81 % 1021,0 hPa 0,0 l/m 0,0 km/h SO 130 0,0 km/h
24.09.2017 16:35 15,1 C 81 % 1021,0 hPa 0,0 l/m 0,0 km/h SO 130 0,0 km/h
24.09.2017 16:30 15,2 C 80 % 1021,0 hPa 0,0 l/m 0,0 km/h SO 129 0,0 km/h
24.09.2017 16:25 15,2 C 79 % 1021,0 hPa 0,0 l/m 0,0 km/h SO 129 0,0 km/h
24.09.2017 16:20 15,2 C 80 % 1020,9 hPa 0,0 l/m 0,0 km/h SO 129 0,0 km/h
24.09.2017 16:16 15,2 C 79 % 1020,8 hPa 0,0 l/m 0,0 km/h SO 129 0,0 km/h
24.09.2017 16:10 15,2 C 80 % 1020,9 hPa 0,0 l/m 0,0 km/h SO 129 0,0 km/h
24.09.2017 16:05 15,2 C 79 % 1020,8 hPa 0,0 l/m 0,0 km/h SO 129 0,0 km/h
24.09.2017 16:00 15,2 C 79 % 1020,8 hPa 0,0 l/m 0,0 km/h SO 129 0,0 km/h
24.09.2017 15:55 15,2 C 79 % 1020,8 hPa 0,0 l/m 0,0 km/h SO 129 0,0 km/h
_ Min-Zeit 07:15 12:00 06:21 - 00:00 - - 00:00
Minimum _ 9,7 C 72 % 1019,6 hPa - 0,0 km/h - - 0,0 km/h
_ Max-Zeit 11:55 08:10 22:05 00:00 00:00 - - 15:20
Maximum _ 17,8 C 95 % 1022,3 hPa 0,0 l/m 0,0 km/h
N-NW
- - 1,6 km/h
SO
Durchschnitt _ 12,9 C 88 % 1020,9 hPa #0,0 l/m 0,0 km/h - - - 0,0 km/h